Location: *
(45.9500°N, 9.0833°E)
Time: 20:58:03
(UTC+00:00)

Vanguard 2 Rocket - Pass Details

Date: 22 June 2021
Orbit: 555 x 3325 km, 32.9° (Epoch: 30 July)

Event Time Altitude Azimuth Distance (km) Brightness Sun altitude
Rises 00:38:55 0° 274° (W) 6,262 11.0 -18.6°
Reaches altitude 10° 00:46:28 10° 253° (WSW) 4,554 10.1 -18.2°
Enters shadow 00:49:44 13° 237° (WSW) 3,976 9.7 -18.0°
Maximum altitude 00:51:16 13° 229° (SW) 3,780 - -17.9°
Drops below altitude 10° 00:55:14 10° 204° (SSW) 3,590 - -17.7°
Sets 00:59:45 0° 177° (S) 4,028 - -17.4°
